Location: Équennes
(49.7375°N, 1.9622°E)
Time: 01:15:11
(UTC+00:00)

Cosmos 1656 - Pass Details

Date: 07 October 2023
Orbit: 797 x 849 km, 71.1° (Epoch: 03 December)

Event Time Altitude Azimuth Distance (km) Brightness Sun altitude
Rises 21:19:02 0° 332° (NNW) 3,320 7.7 -36.9°
Reaches altitude 10° 21:21:29 10° 336° (NNW) 2,390 6.7 -37.2°
Enters shadow 21:23:45 25° 343° (NNW) 1,572 5.5 -37.5°
